Powrót do katalogu

STARLINK-3750

AktywnyŁącznośćVLEO
NORAD 52311·PAYLOAD·🇺🇸 United States

Wystrzelony Apr 21, 2022 z Cape Canaveral Space Force Station

Loading…

Następne Przeloty (najbliższe 24 godziny)

TLE

ŚwieżeSource: CelesTrak SupGP

Epoka: Sep 15, 2026, 01:24 UTC

1 52311C 22041BC  26258.05881944  .00039505  00000+0  11985-2 0  2588
2 52311  53.1570 307.3621 0001179  92.2241  74.3229 15.33536162    18

Śledź STARLINK-3750 w czasie rzeczywistym z AllMySat

Download on the App Store